Location: Anjeux
(47.8815°N, 6.2076°E)
Time: 12:04:48
(UTC+00:00)

AO-27 - Pass Details

Date: 13 December 2021
Orbit: 784 x 798 km, 98.9° (Epoch: 24 January)

Event Time Altitude Azimuth Distance (km) Brightness Sun altitude
Rises 05:27:00 0° 34° (NE) 3,308 11.1 -17.3°
Reaches altitude 10° 05:31:33 10° 71° (ENE) 2,366 10.9 -16.6°
Maximum altitude 05:32:49 11° 85° (E) 2,305 11.2 -16.4°
Drops below altitude 10° 05:34:05 10° 100° (E) 2,360 11.5 -16.2°
Sets 05:38:34 0° 136° (SE) 3,277 12.0 -15.5°
